Aeroporto :
LOGIN :

Iscrizione | Disclaimer

   EN    FR    IT 

 










Sommario :    VFR   VFR Marginale   IFR   IFR Intensivo   IFR Molto Intensivo
Visibilità : 
Base nubi : 
>= 8 km
>= 3000ft
5 / 8 km
1000 / 3000 ft
1500m / 5 km
500 / 1000 ft
800 / 1500m
200 / 500 ft
< 800m
< 200 ft
Simboli :   Temporali  Nebbia  Neve Forte  Precipitazioni Forti  Vento > 20 kt
SIGMETs :   Varie  Temporali  Ghiacco  Turbolenza  Onda orograficha  Ceneri Vulcaniche






- Altitudine del aeroporto : 324 ft
- Codice IATA : KVB


ESGR - Skovde

ULTIMO METAR :
  • 181950Z AUTO 13003KT 100V170 9999 NCD 11/09 Q1024

METARs OBSOLETI :
  • 181920Z AUTO VRB02KT 9999 NCD 13/10 Q1024
  • 181850Z AUTO 21004KT 9999 NCD 13/10 Q1024
  • 181820Z AUTO 20005KT 160V260 9999 NCD 12/09 Q1024
  • 181750Z AUTO 24006KT 9999 NCD 14/10 Q1023
  • 181720Z AUTO 24004KT 190V280 9999 NCD 15/10 Q1023

TAF N/A



MetMap, La meteo Aeronautica in un colpo d'occhio ! - Copyright ORBIFLY Dicembre 2007 - Disclaimer

ORBIFLY MET'MAP TEAM :

Programmazione e sviluppo : Alexandra Zaïnal
Concezione : Baudouin d'Aumeries
Aiuto per la programmazione : Marc-Olivier Méhu
Supporto tecnico e logistico : Manuel Goepfert
Aiuto per la traduzione : Arnaldo La Scala

Contatto : metmap@orbifly.com




FONTI E CREDITI :

   NOAA